Погода в Напасе

Россия / Томская область     59°53′25″N   82°00′08″E
темп.,
°C
ветер,
м/с
пор.,
м/с
влажн.,
%
обл.,
%
осадки,
мм/ч
давл.,
гПа
погр.,
м
29 июля, чт
чт2901:00+14ююв398750 0.9 1007192
04:00+12юв268761 0.0 1006124
07:00+12юв3108739 0.0 1006266
10:00+19ююв5105672 0.0 1005907
13:00+19ю595898 0.1 10041452
16:00+14ю51091100 1.6 1005761
19:00+16юз47811 2.6 1005860
22:00+12з26950 0.2 1007195
30 июля, пт
пт3001:00+10юз23970 0.2 100749
04:00+8юз229820 0.0 100850
07:00+9юз23937 0.0 1009123
10:00+15ююз35605 0.0 1009724
13:00+18ююз4642100 0.0 10082345
16:00+17ююз4853100 0.1 10081246
19:00+13ююз488428 1.6 10091009
22:00+10ююз229630 0.6 101035
31 июля, сб
сб3101:00+9ююз249841 0.6 101092
04:00+8ююз249935 0.0 101199
07:00+9ююв2697100 0.0 1011165
10:00+12юв3698100 0.4 1010314
13:00+14ююв41094100 0.9 1009707
16:00+14ююв51391100 0.9 10081203
19:00+13ю71596100 5.0 10061119
22:00+13ю51198100 4.9 1005712
1 августа, вс
вс101:00+13ююз3999100 7.1 1005584
04:00+13зюз3699100 0.6 1006554
07:00+12зюз3699100 0.6 1007397
10:00+12з3798100 0.0 1008480
13:00+14з4688100 0.3 1009662
16:00+16з457142 0.1 1010940
19:00+18з246225 0.2 10091015
22:00+13ю1186100 0.1 101013
2 августа, пн
пн201:00+11ю1193100 0.1 100912
04:00+10ююз239313 0.0 100948
07:00+11юв2488100 0.0 1008106
10:00+16ююв3770100 0.0 1006540
13:00+13юв41096100 1.9 1005559
16:00+13юв41197100 3.1 1004703
19:00+15ююв41197100 3.8 1002579
22:00+14юз2498100 0.1 1002127